www.pogodaiklimat.ru

Погода и климат >> Архив погоды >> Украина >> Каменец-Подольский


ПОГОДА в Каменец-Подольском

  • Прогноз погоды в Каменец-Подольском
  • Монитор погоды в Каменец-Подольском

АРХИВ ПОГОДЫ в Каменец-Подольском

Время (UTC), дата Ветер
(напр.,м/с)
 
Видим.   Явления Облачность Т
(С)
Тd
(С)
f
(%)
Тe
(С)
Тes
(С)
Комфортность P
(гПа)
Po
(гПа)
Тmin
(С)
Tmax
(С)
R
(мм)
R24
(мм)
S
(см)
06 12.06 С 1 20 км ясно +24.4 +18.8 71 +29 +38 душно 1016.0 990.6 +18.8
09 12.06 ЮВ 2 10 км 10 баллов +29.0 +15.8 45 +32 +32 душно 1016.0 990.9
12 12.06 СВ 3 50 км 8/6 600 м
[Cu med, cong Ci fib]
+29.7 +16.1 44 +33 +33 душно 1015.0 990.0
15 12.06 СЗ 2 50 км гроза без осадков 8/8 600 м
[Cb cap Ci fib]
+26.8 +17.6 57 +31 +31 душно 1015.0 989.8
18 12.06 С 2 20 км {гроза} 8/0
[Ac trans Ci fib]
+23.7 +18.8 74 +28 +28 душно 1015.0 989.5 +30.5
21 12.06 штиль 0 10 км 5/0
[Ci fib]
+20.1 +18.2 89 +23 +23 комфорт 1016.0 990.2
00 13.06 З 1 10 км 3/0
[Ci fib]
+19.4 +17.9 91 +23 +23 комфорт 1016.0 990.1
03 13.06 СВ 1 10 км туман поземный ясно +16.4 +15.9 97 +17 +17 1017.0 990.8
06 13.06 штиль 0 50 км ясно +24.2 +18.6 71 +29 +39 душно 1017.0 991.5 +16.4
09 13.06 ЮЗ 1 50 км ясно +29.0 +16.9 48 +33 +53 опасность
солнечного
удара
1017.0 991.9
12 13.06 В 3 50 км 4/4 1000 м
[Cu hum]
+30.0 +14.5 39 +32 +41 жарко 1017.0 992.0
15 13.06 штиль 0 50 км 8/5 600 м
[Cu med, cong Ci fib]
+30.2 +17.6 47 +34 +34 очень
душно
1015.0 990.1
18 13.06 В 4 50 км 8/5 600 м
[Cb cap Ac trans Ci fib]
+23.6 +15.1 59 +26 +26 жарко 1018.0 992.4 +30.7
21 13.06 ЮВ 1 10 км 6/0
[Ac trans Ci fib]
+19.6 +16.1 80 +23 +23 комфорт 1019.0 993.0
00 14.06 штиль 0 10 км 6/0
[Ac trans Ci fib]
+16.2 +13.9 86 +16 +16 1019.0 992.7
03 14.06 штиль 0 50 км 3/0
[Ci fib]
+14.8 +13.7 93 +14 +15 1019.0 992.6
06 14.06 штиль 0 50 км 3/0
[Ci fib]
+23.2 +17.2 69 +28 +36 душно 1020.2 994.7 +14.6
09 14.06 ЮВ 1 50 км 3/0
[Ci fib]
+28.0 +14.6 44 +30 +44 жарко 1019.0 993.7
12 14.06 ЮВ 2 50 км 3/0
[Ci fib]
+29.2 +14.2 40 +31 +42 жарко 1019.0 993.8
15 14.06 ЮВ 3 50 км 4/3 600 м
[Cu med, cong Ci fib]
+29.4 +15.1 42 +32 +35 душно 1018.0 992.9
18 14.06 штиль 0 50 км 6/0
[Ac trans Ci fib]
+26.2 +19.1 65 +31 +31 очень
душно
1018.0 992.7 +30.2
21 14.06 штиль 0 10 км 4/0
[Ci fib]
+20.3 +17.1 82 +23 +23 комфорт 1019.0 993.1
00 15.06 штиль 0 10 км 3/0
[Ci fib]
+17.6 +16.1 91 +18 +18 1019.0 992.9
03 15.06 штиль 0 10 км туман поземный 3/0
[Ci fib]
+16.9 +15.9 94 +17 +17 1018.0 991.8
06 15.06 штиль 0 50 км 3/0
[Ci fib]
+23.6 +18.2 72 +28 +35 душно 1018.0 992.4 +16.4
09 15.06 штиль 0 50 км 5/3 1000 м
[Cu med, cong Ci fib]
+29.0 +19.3 56 +35 +44 очень
душно
1017.0 991.9
12 15.06 штиль 0 50 км 4/4 1000 м
[Cu hum]
+30.0 +18.4 50 +35 +50 очень
душно
1015.0 990.1
15 15.06 ЮВ 1 50 км 3/0
[Ci fib]
+30.2 +17.3 46 +34 +39 очень
душно
1014.0 989.1
18 15.06 штиль 0 50 км 4/0
[Ci fib]
+28.0 +20.3 63 +34 +34 очень
душно
1014.0 988.9 +31.5
21 15.06 штиль 0 10 км ясно +21.0 +19.1 89 +25 +25 комфорт 1015.0 989.3
00 16.06 штиль 0 10 км ясно +19.0 +17.5 91 +20 +20 1014.0 988.1
03 16.06 штиль 0 20 км ясно +17.5 +16.9 96 +17 +18 1014.0 988.0
06 16.06 ЮВ 1 50 км ясно +26.1 +19.7 68 +32 +40 очень
душно
1014.0 988.8 +17.3
09 16.06 СВ 1 50 км 3/3 1000 м
[Cu hum]
+29.4 +19.4 55 +35 +49 очень
душно
1014.0 989.0
12 16.06 В 1 50 км 3/3 1000 м
[Cu hum]
+30.3 +18.0 48 +35 +48 очень
душно
1013.0 988.1
15 16.06 ЮВ 1 50 км 3/3 1000 м
[Cu hum]
+30.9 +15.3 39 +33 +38 душно 1012.0 987.2
18 16.06 штиль 0 20 км 4/0
[Ci fib]
+27.9 +20.4 64 +35 +35 очень
душно
1013.0 988.0 +31.5
21 16.06 штиль 0 10 км ясно +22.4 +19.4 83 +28 +28 душно 1014.0 988.5
00 17.06 штиль 0 10 км ясно +19.0 +17.3 90 +20 +20 1015.0 989.1
03 17.06 С 1 20 км 3/0
[Ci fib]
+18.3 +17.5 95 +20 +20 1016.0 990.0
06 17.06 З 1 20 км 4/3 1000 м
[Cu hum Ci fib]
+23.3 +19.4 79 +30 +36 очень
душно
1016.0 990.5 +17.6
09 17.06 СЗ 2 10 км ясно +27.4 +20.0 64 +34 +51 опасность
солнечного
удара
1016.0 990.8
12 17.06 СЗ 3 20 км 6/6 600 м
[Cu hum]
+29.6 +20.4 58 +36 +42 очень
душно
1015.0 990.0
15 17.06 СЗ 7 4000 м гроза, ливневой дождь 10/10 660 м
[Cb calv]
+20.6 +19.8 95 +25 +25 комфорт 1017.0 991.2
18 17.06 ЮЗ 1 20 км {гроза, ливн. осадки} 10/5 600 м
[Cb cap Ac und]
+22.5 +22.2 98 +30 +30 очень
душно
1017.0 991.4 +29.9 27
21 17.06 СЗ 2 10 км 10 баллов +21.1 +19.6 91 +26 +26 душно 1018.0 992.2
00 18.06 СЗ 1 10 км 8/0
[Ac trans Ci fib]
+20.0 +18.8 93 +24 +24 комфорт 1018.0 992.1
03 18.06 СЗ 2 20 км 9/4 1000 м
[Cu hum Ac trans]
+19.4 +17.9 91 +22 +22 комфорт 1019.0 993.0
06 18.06 СВ 2 20 км 6/0
[Ac trans]
+21.7 +17.5 77 +26 +29 душно 1019.0 993.2 +18.9
09 18.06 Ю 2 10 км 10 баллов +24.3 +18.7 71 +29 +29 душно 1019.0 993.5
12 18.06 ЮВ 3 50 км 8/8 600 м
[Cu med, cong]
+25.6 +18.8 66 +31 +31 очень
душно
1018.0 992.6
15 18.06 СЗ 1 10 км 6 баллов +25.0 +19.6 72 +30 +33 душно 1017.0 991.6
18 18.06 штиль 0 10 км 10 баллов +22.7 +19.9 84 +29 +29 очень
душно
1017.0 991.4 +26.9
21 18.06 штиль 0 10 км 10 баллов +21.1 +18.8 87 +25 +25 комфорт 1018.0 992.2
00 19.06 штиль 0 10 км 10 баллов +17.5 +16.2 92 +17 +17 1018.0 991.9
03 19.06 штиль 0 10 км 6 баллов +18.0 +17.5 97 +18 +18 1017.0 991.0

 

Местоположение метеостанции Каменец-Подольский (Хмельницкая область, Украина): широта 48.65 долгота 26.67 высота над уровнем моря 222 м.

В архиве по умолчанию представлена погода в Каменец-Подольском за последнюю неделю. Архивные данные за месяц целиком и за предыдущие месяцы, начиная с января 2011 года, Вы можете получить, выбрав интересующий диапазон дат из раскрывающегося списка и нажав кнопку "Ввод!".


*Определитесь, кто Вы:
робот инопланетянин человек

Внимание! Время в таблицах - всемирное. Для получения местного времени необходимо прибавить поправку, которая равна 2 ч.

Смотрите также архив погоды в соседних городах и на ближайших метеорологических станциях:

Погода в Бричанах (Молдова) (45 км)
Погода в Новой Ушице (Хмельницкая область, Украина) (49 км)
Погода в Дарабани (Румыния) (50 км)
Погода в Новоднестровске (Черновицкая область, Украина) (58 км)
Погода в Черновцах (Черновицкая область, Украина) (65 км)
Погода в Чорткове (Тернопольская область, Украина) (76 км)
Погода в Могилев-Подольском (Винницкая область, Украина) (85 км)
Погода в Хмельницком (Хмельницкая область, Украина) (90 км)
Погода в Штефанешты (Румыния) (100 км)
Погода в Хмельнике (Винницкая область, Украина) (101 км)

Пояснения к столбцам:

Ветер - указаны скорость ветра в м/с - средняя за 10 мин, порывы в срок и между сроками (в фигурных скобках) и направление, откуда дует ветер: С - северный, СВ - северо-восточный, В - восточный, ЮВ - юго-восточный, Ю - южный, ЮЗ - юго-западный, З - западный, СЗ - северо-западный.
Видимость - горизонтальная дальность видимости в метрах или километрах. При видимости от 1 до 10 км при отсутствии осадков обычно наблюдается дымка, при ухудшении видимости до 1 км и менее - туман. В сухую погоду видимость может ухудшаться дымом, пылью или мглою.
Явления - указаны атмосферные явления, наблюдавшиеся в срок или в последний час перед сроком; фигурными скобками обозначены явления, наблюдавшиеся между сроками (за 1-3 часа до срока); квадратными скобками обозначены град или гололедные отложения с указанием их диаметра в мм.
Облачность - указаны через наклонную черту общая и нижняя облачность в баллах и высота нижней границы облаков в метрах; квадратными скобками обозначены формы облаков: Ci - перистые, Cs - перисто-слоистые, Cc - перисто-кучевые, Ac - высококучевые, As - высокослоистые, Sc - слоисто-кучевые, Ns - слоисто-дождевые, Cu - кучевые, Cb - кучево-дождевые. Подробнее классификацию облаков см. в Атласе облаков (PDF).
T - Температура воздуха - температура, измеренная на высоте 2 м над землей.
Td - Температура точки росы - температура, при понижении до которой содержащийся в воздухе водяной пар достигнет насыщения.
f - Относительная влажность воздуха - влажноcть воздуха, измеренная на высоте 2 м над землей.
Te - Эффективная температура - температура, которую ощущает одетый по сезону человек в тени. Характеристика душности погоды. При расчете учитывается влияние влажности воздуха и скорости ветра на теплоощущения человека.
Tes - Эффективная температура на солнце - температура, которую ощущает человек, с поправкой на солнечный нагрев. Характеристика знойности погоды. Зависит от высоты солнца над горизонтом, облачности и скорости ветра. Ночью, в пасмурную погоду, а также при ветре 12 м/с и более поправка равна нулю.
P - Атмосферное давление - приведенное к уровню моря атмосферное давление.
Po - Атмосферное давление - измеренное на уровне метеостанции атмосферное давление.
Tmin - Минимальная температура - минимум температуры воздуха на высоте 2 м над землей.
Tmax - Максимальная температура - максимум температуры воздуха на высоте 2 м над землей.
R - Количество осадков - Количество выпавших осадков за период времени, мм. При наведении курсора мыши на число - период времени, за который выпало указанное количество осадков.
R24 - Количество осадков - Количество выпавших осадков за 24 часа, мм.
S - Снежный покров - Высота снежного покрова, см. При наведении курсора мыши на число - состояние снежного покрова и степень покрытия местности в баллах.